Terminal Aerodrome Forecast
Issued by NWS

Home | Current Version | Previous Version | Graphics & Text | Print | Product List | Glossary On
Versions: 1 2 3 4 5 6 7 8 9 10 11 12
000
FTUS43 KMPX 250520
TAFAXN
TAF
KAXN 250520Z 2506/2606 13008KT P6SM SCT050
     FM251400 15016G24KT P6SM SCT050 BKN090 PROB30 2519/2523 P6SM
      -SHRA BKN050 OVC090
     FM252300 15009KT P6SM BKN050=

USA.gov is the U.S. government's official web portal to all federal, state and local government web resources and services.